This is the latest recevied weather packets stored in our database for station/object WZ8H. If no packets are shown the sender has not sent any weather packets the latest 10 day(s).
| Time | Temp. | Humidity | Pressure | Rain* | Wind** | Luminosity | Snow |
|---|---|---|---|---|---|---|---|
| 1777755473 | 9.44° C | 60% | 1016.1 hPa | 0 mm | - | 526 W/m² | - |
| 1777755145 | 8.89° C | 58% | 1016.1 hPa | 0 mm | - | 350 W/m² | - |
| 1777754844 | 8.89° C | 57% | 1016.1 hPa | 0 mm | - | 515 W/m² | - |
| 1777754545 | 9.44° C | 60% | 1016 hPa | 0 mm | - | 394 W/m² | - |
| 1777754228 | 9.44° C | 61% | 1016.1 hPa | 0 mm | - | 366 W/m² | - |
| 1777753906 | 9.44° C | 60% | 1016.1 hPa | 0 mm | - | 404 W/m² | - |
| 1777753581 | 9.44° C | 61% | 1016.2 hPa | 0 mm | - | 522 W/m² | - |
| 1777753266 | 9.44° C | 60% | 1016.2 hPa | 0 mm | - | 367 W/m² | - |
| 1777752941 | 9.44° C | 59% | 1016.2 hPa | 0 mm | - | 561 W/m² | - |
| 1777752642 | 9.44° C | 60% | 1016.3 hPa | 0 mm | - | 861 W/m² | - |
| 1777752324 | 9.44° C | 60% | 1016.3 hPa | 0 mm | - | 151 W/m² | - |
| 1777752014 | 9.44° C | 61% | 1016.3 hPa | 0 mm | - | 682 W/m² | - |
| 1777751713 | 8.89° C | 61% | 1016.4 hPa | 0 mm | - | 304 W/m² | - |
| 1777751386 | 8.89° C | 60% | 1016.5 hPa | 0 mm | - | 237 W/m² | - |
| 1777751064 | 8.89° C | 63% | 1016.5 hPa | 0 mm | - | 773 W/m² | - |
| 1777750737 | 8.89° C | 62% | 1016.4 hPa | 0 mm | - | 814 W/m² | - |
| 1777750435 | 8.89° C | 62% | 1016.5 hPa | 0 mm | - | 872 W/m² | - |
| 1777750110 | 8.89° C | 63% | 1016.5 hPa | 0 mm | - | 872 W/m² | - |
| 1777749783 | 8.33° C | 62% | 1016.6 hPa | 0 mm | - | 635 W/m² | - |
| 1777749456 | 8.33° C | 64% | 1016.6 hPa | 0 mm | - | 492 W/m² | - |
| 1777749150 | 8.33° C | 62% | 1016.7 hPa | 0 mm | - | 448 W/m² | - |
| 1777748846 | 8.33° C | 64% | 1016.7 hPa | 0 mm | - | 675 W/m² | - |
| 1777748542 | 8.33° C | 64% | 1016.8 hPa | 0 mm | - | 526 W/m² | - |
| 1777748227 | 8.33° C | 64% | 1016.8 hPa | 0 mm | - | 508 W/m² | - |
| 1777747930 | 8.33° C | 63% | 1016.9 hPa | 0 mm | - | 571 W/m² | - |
* Rain latest hour (hover to see other rain measurements)
** Current wind speed in m/s (hover to see current wind gust speed)